Regional Weather Roundup
Issued by NWS Upton, NY

Current Version | Previous Version | Text Only | Print | Product List | Glossary Off
Versions: 1 2 3 4 5 6 7 8 9 10 11 12 13 14 15 16 17 18 19 20 21 22 23 24 25 26 27 28 29 30 31 32 33 34 35 36 37 38 39 40 41 42 43 44 45 46 47 48 49 50
000 ASUS41 KOKX 200808 RWROKX REGIONAL WEATHER ROUNDUP NATIONAL WEATHER SERVICE NEW YORK NY 300 AM EST MON NOV 20 2017 NOTE: "FAIR" INDICATES FEW OR NO CLOUDS BELOW 12,000 FEET WITH NO SIGNIFICANT WEATHER AND/OR OBSTRUCTIONS TO VISIBILITY. NYZ071-072-176-178-NJZ106-104-200900- NEW YORK CITY METRO AREA CITY SKY/WX TMP DP RH WIND PRES REMARKS Central Park CLOUDY 39 26 59 W9G17 29.89R WCI 33 Bronx Bot Gard N/A 39 25 56 W6 29.87R WCI 35 LaGuardia APRT CLOUDY 41 26 55 W14 29.87R Kennedy INTL CLOUDY 39 27 62 W16 29.89R WCI 30 Breezy Point N/A 37 N/A N/A W16G24 N/A WCI 28 Newark/Liberty CLOUDY 38 27 64 W13 29.89R WCI 30 Teterboro CLOUDY 39 25 57 W8 29.87R WCI 33 $$ NYZ177-179-078>081-200900- LONG ISLAND NEW YORK CITY SKY/WX TMP DP RH WIND PRES REMARKS Jones Beach N/A 39 N/A N/A W21G28 N/A WCI 29 Matinecock PT N/A 41 N/A N/A W23G29 N/A Farmingdale CLOUDY 40 25 55 W10G20 29.86R WCI 33 MacArthur/ISP CLOUDY 39 28 64 NW16G24 29.85R WCI 30 Shirley MOCLDY 38 30 73 W9 29.84R WCI 31 Mt Sinai Harb N/A N/A N/A N/A W16G24 N/A Westhampton PTCLDY 39 22 50 W14G24 29.83R WCI 31 East Hampton FAIR 40 20 44 W14G24 29.80R WCI 32 Southold NOT AVBL Montauk NOT AVBL $$ NYZ052-065-067-200900- HUDSON VALLEY CITY SKY/WX TMP DP RH WIND PRES REMARKS White Plains MOCLDY 37 18 46 NW18G29 29.82R WCI 27 Larchmont Harb N/A 39 N/A N/A W13G18 N/A WCI 32 Croton On Huds N/A 39 N/A N/A W16G22 N/A WCI 30 Newburgh PTCLDY 32 21 64 NW8 29.86R WCI 25 Montgomery PTCLDY 35 18 49 NW14G20 29.85R WCI 26 Poughkeepsie PTCLDY 35 19 52 W6 29.84R WCI 30 Albany FLURRIES 32 24 72 NW14G23 29.81R WCI 22 $$ NJZ001-105-106-008-010-013-015-019>022-104-200900- NEW JERSEY CITY SKY/WX TMP DP RH WIND PRES REMARKS Newark/Liberty CLOUDY 38 27 64 W13 29.89R WCI 30 Teterboro CLOUDY 39 25 57 W8 29.87R WCI 33 Caldwell CLOUDY 37 25 61 W8 29.89R WCI 31 Somerville CLOUDY 38 27 64 W10G21 29.90R WCI 31 Linden CLOUDY 37 28 68 NW14G22 29.90R WCI 28 Perth Amboy N/A 37 N/A N/A W18 N/A WCI 27 Sussex PTCLDY 34 24 67 SW6 29.87R WCI 29 Andover NOT AVBL Trenton CLEAR 38 22 52 W9 29.92R WCI 31 Millville MOCLDY 42 26 53 W14 29.98R Atlantic City CLEAR 39 27 62 W10 29.97R WCI 32 Wrightstown PTCLDY 38 25 58 W13 29.91R WCI 30 Toms River PTCLDY 38 25 59 W15G24 29.94R WCI 29 Belmar PTCLDY 38 25 59 W14G22 29.92R WCI 30 $$ PAZ047>061-062-071-200900- EASTERN PENNSYLVANIA CITY SKY/WX TMP DP RH WIND PRES REMARKS Philadelphia PTCLDY 40 23 50 W14G24 29.97R WCI 32 Allentown CLEAR 36 22 56 W9 29.92R WCI 29 Scranton FLURRIES 32 29 88 SW7 29.89R WCI 26 $$ CTZ002-004>006-009-010-012-RIZ004-006-007-MAZ004-011-015-200900- SOUTHERN NEW ENGLAND IN CT CITY SKY/WX TMP DP RH WIND PRES REMARKS Bradley INTL PTCLDY 35 22 58 W14 29.78R WCI 26 Hartford CLOUDY 36 30 79 W5 29.80S WCI 32 Danbury CLEAR 36 19 50 W9 29.84R WCI 29 Wtrbury/Oxford PTCLDY 33 22 63 W10G23 29.79R WCI 25 Norwalk Harbor N/A 37 N/A N/A W20G25 N/A WCI 27 Bridgeport CLEAR 39 19 44 W18G26 29.83R WCI 30 Meriden MOCLDY 35 26 69 W7G17 29.81R WCI 29 New Haven CLEAR 40 22 48 NW15G25 29.82R WCI 32 Chester FAIR 36 25 64 W8G14 29.78R WCI 29 Groton CLEAR 37 27 67 W8 29.78R WCI 31 Wilimantic CLOUDY 37 28 70 W7G18 29.78R WCI 32 IN RI CITY SKY/WX TMP DP RH WIND PRES REMARKS Providence MOCLDY 37 27 67 W10 29.76R WCI 30 Block Island MOCLDY 41 26 55 NW16G30 29.78R Westerly PTCLDY 36 28 73 NW3 29.78R IN MA CITY SKY/WX TMP DP RH WIND PRES REMARKS Boston PTCLDY 37 24 59 W13G24 29.71R WCI 29 Worcester CLOUDY 32 22 66 W12G21 29.69R WCI 23 Westfield CLOUDY 35 25 66 W13G21 29.77R WCI 26 Provincetown CLEAR 39 26 59 W24G31 29.71R WCI 28 Nantucket CLOUDY 41 26 55 W13G29 29.74R $$ ANZ330-335-338-340-345-350-353-355-200900- COASTAL MARINE OBSERVATIONS STATION/POSITION TIME SKY/WX TEMP WIND PRES VSBY WAVE AIR SEA DIR/SP/G HT/PER (UTC) (F) (DEG/KT/KT) (MB) (MI) (FT/S) NY HARB ENTRANCE 0650 44 57 280/ 25/ 31 1009.8 4/10 20 S FIRE ISLAND 0650 45 57 280/ 23/ 27 1009.8 7/ 6 GREAT SOUTH BAY 0645 41 47 270/ 14/ 19 N/A HUDSON CANYON 0650 47 59 290/ 27/ 33 1009.3 10/ 7 KINGS POINT 0730 41 51 330/ 13/ 16 1011.9 EXECUTION ROCKS 0745 42 280/ 16/ 23 N/A WESTERN LI SOUND 0649 42 280/ 16/ 23 N/A 2/ 3 CENTRAL LI SOUND 0730 44 280/ 27/ 35 N/A 5 ROBBINS REEF 0730 38 270/ 16/ 20 1012.2 $$ >>>>>>>>>>>>>>>>>>>>>>>>>>>> KEY <<<<<<<<<<<<<<<<<<<<<<<<<<< > < > SKY/WX - Sky Condition/Present Weather < > TMP - Temperature in Fahrenheit < > DP - Dew Point in Fahrenheit < > RH - Relative Humidity in Percent < > WIND - Direction (from) and Speed in MPH < > PRES - Mean Sea Level Pressure (inches of Hg) < > WCI - Wind Chill Index < > VSB - VISIBILITY IN MILES < > HX - HEAT INDEX < > TC - TEMPERATURE IN CELSIUS < > VRB - VARIABLE WIND DIRECTION < > < >>>>>>>>>>>>>>>>>>>>>>>>>>>> KEY <<<<<<<<<<<<<<<<<<<<<<<<<<<

USA.gov is the U.S. government's official web portal to all federal, state and local government web resources and services.